Regional Weather Roundup
Issued by NWS Cleveland, OH

Home | Current Version | Previous Version | Graphics & Text | Print | Product List | Glossary On
Versions: 1 2 3 4 5 6 7 8 9 10 11 12 13 14 15 16 17 18 19 20 21 22 23 24 25 26 27 28 29 30 31 32 33 34 35 36 37 38 39 40 41 42 43 44 45 46 47 48 49 50
041
ASUS41 KCLE 141910
RWRCLE
OHIO REGIONAL WEATHER ROUNDUP
NATIONAL WEATHER SERVICE CLEVELAND, OH
200 PM EST SUN FEB 14 2016

NOTE: "FAIR" INDICATES FEW OR NO CLOUDS BELOW 12,000 FEET WITH NO
SIGNIFICANT WEATHER AND/OR OBSTRUCTIONS TO VISIBILITY.

OHZ001>008-015>018-024>027-034-035-043-044-142000-
   NORTHWEST OHIO

CITY           SKY/WX    TMP DP  RH WIND       PRES   REMARKS
DEFIANCE       CLOUDY    20   5  52 SE12      30.31F WCI   8
FINDLAY        PTSUNNY   20   6  55 SE13      30.31F WCI   7
TOLEDO EXPRESS CLOUDY    18   3  52 S10       30.33F WCI   6
TOLEDO EXEC    CLOUDY    20   3  48 SE15      30.36F WCI   6
LIMA           CLOUDY    18   4  54 S15       30.28F WCI   4
$$

OHZ009>014-019>023-028>033-038-089-142000-
   NORTHEAST OHIO

CITY           SKY/WX    TMP DP  RH WIND       PRES   REMARKS
CLE-HOPKINS    CLOUDY    17   1  49 SE8       30.41F WCI   7
CLE-LAKEFRONT  CLOUDY    18   3  52 SE9       30.40F WCI   7
CUY CO. ARPT   PTSUNNY   28   1  31 SE8       30.39F WCI  20
LORAIN-ELYRIA  CLOUDY    15  -1  49 S12       30.38F WCI   2
ASHTABULA      PTSUNNY   13  -1  54 S6        30.40F WCI   4
AKRON-CANTON   PTSUNNY   15  -1  49 SE12      30.35F WCI   2
WOOSTER        CLOUDY    15   2  56 S9        30.36F WCI   3
MANSFIELD      CLOUDY    15   2  56 SE13      30.32S WCI   1
YOUNGSTOWN     CLOUDY    13   1  59 VRB3      30.37F
$$

OHZ042-051>053-060>062-070>072-077>081-142000-
  SOUTHWEST OHIO

CITY           SKY/WX    TMP DP  RH WIND       PRES   REMARKS
CINC-COVINGTON LGT SNOW  19  10  68 SE16      30.25F WCI   4
CINC-LUNKEN    FLURRIES  21   9  59 E12       30.29F WCI   9
HAMILTON       CLOUDY    21   7  54 SE9G17    30.28F WCI  11
DAYTON         CLOUDY    17   5  59 SE14      30.26F WCI   3
WRIGHT-PAT AFB PTSUNNY   18   3  52 E13       30.26F WCI   5
DAYTON GENERAL CLOUDY    18   2  49 E16       30.23F WCI   3
WILMINGTON     CLOUDY    18   5  57 E10G18    30.25F WCI   6
$$

OHZ036-037-039>041-045>050-054>059-063>069-073>076-082>088-142000-
  CENTRAL AND SOUTHEAST OHIO

CITY           SKY/WX    TMP DP  RH WIND       PRES   REMARKS
COLUMBUS       CLOUDY    17   2  51 SE13      30.34F WCI   4
OSU AIRPORT    CLOUDY    18   4  54 SE12      30.32F WCI   5
BOLTON FIELD   MOSUNNY   18   7  62 SE12      30.33F WCI   5
RICKENBACK AFB CLOUDY    18   4  55 E12       30.33F WCI   5
NEWARK         CLOUDY    19   3  49 S8        30.34F WCI   9
MARION         CLOUDY    18   3  52 SE14      30.32F WCI   4
LANCASTER      CLOUDY    19   5  54 SE12G20   30.34F WCI   7
ZANESVILLE     CLOUDY    20   3  48 SE5       30.37F WCI  13
NEW PHILLY     CLOUDY    19  32 100 VRB5      30.39F WCI  12
$$




USA.gov is the U.S. government's official web portal to all federal, state and local government web resources and services.